Notices

What's New in latest Release from April 7th, 2021:

- Updated Glossary, including Speed of Maximum Gust, and Total Hourly Precipitation

- Updated national and regional climate services offices contacts and prices information

- Addition of station inventory lists for 1981-2010, 1971-2000, and 1961-1990 Normals.

If you haven't already, please take our survey and provide feedback about our website: https://eccc.sondage-survey.ca/f/LanguageSelection.aspx?s=442ca660-fcf1-47c0-95a9-59707d6fd709

Hourly Data Report for June 30, 2015

KELOWNA UBCO
BRITISH COLUMBIA

49°56'26.700" N
119°24'00.760" W
456.00 m
1123996
71644
VKU

Download Data

Hourly Data (June 2015)
Hourly Data Report for June 30, 2015
TIME
LST
Temp Definition
°C
Dew Point Definition
°C
Rel Hum Definition
%
Precip. Amount Definition
mm

Wind Dir Definition
10's deg

Wind Spd Definition
km/h
Visibility Definition
km
Stn Press Definition
kPa
Hmdx Definition


Wind Chill Definition


Weather Definition


00:00 17.4 14.1 81 0.0       96.42     LegendNANA
01:00 16.5 13.9 85 0.0       96.44     LegendNANA
02:00 16.1 13.7 86 0.0       96.47     LegendNANA
03:00 16.4 14.0 86 0.0       96.50     LegendNANA
04:00 15.8 13.5 86 0.0       96.54     LegendNANA
05:00 16.1 13.1 82 0.0       96.57     LegendNANA
06:00 18.2 13.4 73 0.0       96.61     LegendNANA
07:00 19.9 13.8 68 0.0       96.58     LegendNANA
08:00 22.0 14.0 61 0.0       96.54 25   LegendNANA
09:00 24.3 14.2 53 0.0       96.53 28   LegendNANA
10:00 26.2 14.7 49 0.0       96.48 30   LegendNANA
11:00 28.5 13.5 40 0.0       96.45 32   LegendNANA
12:00 29.0 11.9 35 0.0       96.40 31   LegendNANA
13:00 29.9 12.0 33 0.0       96.32 32   LegendNANA
14:00 28.6 11.5 35 0.0       96.28 31   LegendNANA
15:00 30.7 10.2 28 0.0       96.16 32   LegendNANA
16:00 32.1 9.8 25 0.0       96.05 33   LegendNANA
17:00 32.7 9.8 25 0.0       95.97 34   LegendNANA
18:00 32.2 11.4 28 0.0       95.95 34   LegendNANA
19:00 30.3 11.3 31 0.0       96.00 32   LegendNANA
20:00 26.2 11.5 40 0.0       96.12 28   LegendNANA
21:00 23.7 13.8 54 0.0       96.29 27   LegendNANA
22:00 22.8 12.6 52 0.0       96.37 25   LegendNANA
23:00 21.7 12.1 54 0.0       96.43     LegendNANA

Notes on Data Quality.

Legend

  • E = Estimated
  • M = Missing
  • NA = Not Available*
  • [empty] = Indicates an unobserved value
Date modified: